Terug naar catalogus

STARLINK-31219

ActiefCommunicatieVLEO
NORAD 58866·PAYLOAD·🇺🇸 United States

Gelanceerd Jan 29, 2024 vanaf Cape Canaveral Space Force Station

Loading…

Volgende Passages (komende 24 uur)

TLE

VersSource: CelesTrak SupGP

Epoch: Sep 15, 2026, 02:47 UTC

1 58866C 24019P   26258.11645833 -.00018359  00000+0 -66528-3 0  2588
2 58866  42.9989 258.8409 0001454 265.3246 189.7025 15.27572450    15

Volg STARLINK-31219 in realtime met AllMySat

Download on the App Store